KLM355 EHAM-EKCH

Flight info

Callsign KLM355
Flight time 0h 57m
Altitude 39000
Route ANDIK N873 JUIST DCT DOSUR P729 TUDLO
Aircraft B772/H-SDE2E3FGHIJ5LORVWXY/LB1D1

Departure

Time 2026-05-06 11:14
Airport Amsterdam Airport Schiphol (EHAM)

Arrival

Time 2026-05-06 12:12
Airport Copenhagen Kastrup Airport (EKCH)
Time Latitude Longitude Altitude Speed Heading
2026-05-06 10:39 52.31222 4.76858 3 ft 0 kts 303°
2026-05-06 10:58 52.31210 4.76885 5 ft 4 kts 306°
2026-05-06 10:58 52.31194 4.76919 5 ft 4 kts 316°
2026-05-06 10:59 52.31174 4.76944 4 ft 2 kts 331°
2026-05-06 10:59 52.31163 4.76954 5 ft 4 kts 22°
2026-05-06 10:59 52.31143 4.76933 5 ft 4 kts 34°
2026-05-06 10:59 52.31144 4.76935 5 ft 4 kts 33°
2026-05-06 11:00 52.31154 4.76945 5 ft 0 kts 33°
2026-05-06 11:02 52.31178 4.76971 4 ft 11 kts 33°
2026-05-06 11:02 52.31245 4.77043 3 ft 12 kts 33°
2026-05-06 11:03 52.31292 4.77146 3 ft 12 kts 80°
2026-05-06 11:03 52.31293 4.77283 3 ft 12 kts 90°
2026-05-06 11:03 52.31289 4.77425 3 ft 13 kts 101°
2026-05-06 11:03 52.31218 4.77500 3 ft 13 kts 173°
2026-05-06 11:04 52.31124 4.77498 3 ft 14 kts 181°
2026-05-06 11:04 52.31022 4.77487 3 ft 15 kts 184°
2026-05-06 11:04 52.30914 4.77473 3 ft 16 kts 184°
2026-05-06 11:04 52.30802 4.77464 3 ft 16 kts 183°
2026-05-06 11:05 52.30690 4.77453 3 ft 16 kts 190°
2026-05-06 11:05 52.30608 4.77332 3 ft 17 kts 235°
2026-05-06 11:05 52.30546 4.77176 3 ft 17 kts 238°
2026-05-06 11:05 52.30484 4.77016 3 ft 17 kts 238°
2026-05-06 11:06 52.30423 4.76856 3 ft 17 kts 238°
2026-05-06 11:06 52.30362 4.76696 3 ft 17 kts 238°
2026-05-06 11:06 52.30300 4.76536 3 ft 17 kts 238°
2026-05-06 11:06 52.30239 4.76376 3 ft 17 kts 238°
2026-05-06 11:07 52.30178 4.76217 3 ft 17 kts 238°
2026-05-06 11:07 52.30117 4.76057 3 ft 17 kts 238°
2026-05-06 11:07 52.30053 4.75892 3 ft 17 kts 237°
2026-05-06 11:07 52.29988 4.75726 3 ft 17 kts 237°
2026-05-06 11:08 52.29923 4.75559 3 ft 17 kts 238°
2026-05-06 11:08 52.29860 4.75392 3 ft 18 kts 238°
2026-05-06 11:08 52.29847 4.75199 3 ft 18 kts 296°
2026-05-06 11:08 52.29926 4.75039 3 ft 18 kts 311°
2026-05-06 11:09 52.30012 4.74879 3 ft 19 kts 311°
2026-05-06 11:09 52.30099 4.74717 8 ft 19 kts 311°
2026-05-06 11:09 52.30188 4.74553 14 ft 19 kts 311°
2026-05-06 11:09 52.30277 4.74389 16 ft 20 kts 311°
2026-05-06 11:10 52.30355 4.74240 4 ft 13 kts 300°
2026-05-06 11:10 52.30347 4.74095 4 ft 14 kts 243°
2026-05-06 11:10 52.30276 4.73984 3 ft 15 kts 217°
2026-05-06 11:10 52.30199 4.73865 3 ft 16 kts 252°
2026-05-06 11:11 52.30229 4.73755 2 ft 11 kts 333°
2026-05-06 11:11 52.30287 4.73746 0 ft 0 kts
2026-05-06 11:13 52.30288 4.73746 0 ft 1 kts
2026-05-06 11:14 52.30510 4.73765 2 ft 75 kts
2026-05-06 11:14 52.31405 4.73888 57 ft 173 kts
2026-05-06 11:14 52.32734 4.74024 1015 ft 205 kts
2026-05-06 11:14 52.34106 4.74182 2265 ft 199 kts 16°
2026-05-06 11:15 52.35420 4.75101 2605 ft 213 kts 26°
2026-05-06 11:15 52.36762 4.76124 3281 ft 215 kts 25°
2026-05-06 11:15 52.38063 4.77279 3955 ft 212 kts 40°
2026-05-06 11:15 52.39128 4.79045 4619 ft 225 kts 45°
2026-05-06 11:16 52.40229 4.80898 5579 ft 229 kts 45°
2026-05-06 11:16 52.41378 4.82812 6406 ft 241 kts 45°
2026-05-06 11:16 52.42579 4.84803 7222 ft 248 kts 43°
2026-05-06 11:16 52.44086 4.86197 7927 ft 256 kts 10°
2026-05-06 11:17 52.45868 4.86227 8779 ft 258 kts 355°
2026-05-06 11:17 52.47661 4.86024 9698 ft 263 kts 355°
2026-05-06 11:17 52.49492 4.85835 10622 ft 265 kts 355°
2026-05-06 11:17 52.51345 4.85649 11505 ft 269 kts 355°
2026-05-06 11:18 52.53223 4.85714 12255 ft 276 kts 12°
2026-05-06 11:18 52.54916 4.87232 13077 ft 284 kts 43°
2026-05-06 11:18 52.56194 4.89725 13863 ft 287 kts 50°
2026-05-06 11:18 52.57438 4.92357 14559 ft 294 kts 51°
2026-05-06 11:19 52.58703 4.95030 15370 ft 298 kts 51°
2026-05-06 11:19 52.59986 4.97741 16151 ft 302 kts 51°
2026-05-06 11:19 52.61283 5.00476 16935 ft 306 kts 51°
2026-05-06 11:19 52.62605 5.03257 17678 ft 312 kts 51°
2026-05-06 11:20 52.63942 5.06074 18500 ft 311 kts 51°
2026-05-06 11:20 52.64835 5.07954 18920 ft 315 kts 51°
2026-05-06 11:20 52.66605 5.11681 19733 ft 322 kts 51°
2026-05-06 11:20 52.67993 5.14609 20372 ft 327 kts 51°
2026-05-06 11:21 52.69401 5.17581 21046 ft 330 kts 51°
2026-05-06 11:21 52.70822 5.20580 21724 ft 334 kts 52°
2026-05-06 11:21 52.72259 5.23617 22417 ft 337 kts 52°
2026-05-06 11:21 52.73711 5.26692 23073 ft 342 kts 52°
2026-05-06 11:22 52.74689 5.28737 23492 ft 345 kts 51°
2026-05-06 11:22 52.76206 5.31838 24025 ft 348 kts 51°
2026-05-06 11:22 52.77742 5.34967 24584 ft 352 kts 51°
2026-05-06 11:22 52.79773 5.39175 25321 ft 356 kts 52°
2026-05-06 11:23 52.81303 5.42431 25867 ft 360 kts 52°
2026-05-06 11:23 52.82341 5.44651 26237 ft 362 kts 52°
2026-05-06 11:23 52.83887 5.47969 26759 ft 367 kts 52°
2026-05-06 11:23 52.85481 5.51388 26911 ft 383 kts 52°
2026-05-06 11:24 52.87115 5.54895 27202 ft 395 kts 52°
2026-05-06 11:24 52.88811 5.58536 27640 ft 402 kts 52°
2026-05-06 11:24 52.90530 5.62229 28206 ft 406 kts 52°
2026-05-06 11:24 52.92259 5.65945 28842 ft 409 kts 52°
2026-05-06 11:25 52.93998 5.69690 29442 ft 412 kts 52°
2026-05-06 11:25 52.95757 5.73481 30011 ft 416 kts 52°
2026-05-06 11:25 52.97531 5.77314 30505 ft 420 kts 52°
2026-05-06 11:25 52.99317 5.81174 31054 ft 422 kts 52°
2026-05-06 11:26 53.01108 5.85055 31595 ft 425 kts 53°
2026-05-06 11:26 53.02916 5.88977 32143 ft 427 kts 53°
2026-05-06 11:26 53.04727 5.92911 32665 ft 430 kts 53°
2026-05-06 11:26 53.06548 5.96875 33150 ft 434 kts 53°
2026-05-06 11:27 53.08388 6.00884 33652 ft 437 kts 53°
2026-05-06 11:27 53.10238 6.04921 34113 ft 439 kts 53°
2026-05-06 11:27 53.12075 6.08931 34487 ft 443 kts 53°
2026-05-06 11:27 53.13951 6.13020 34840 ft 446 kts 53°
2026-05-06 11:28 53.15853 6.17167 34906 ft 454 kts 53°
2026-05-06 11:28 53.19671 6.25516 34877 ft 449 kts 53°
2026-05-06 11:29 53.23437 6.33781 34904 ft 448 kts 53°
2026-05-06 11:29 53.27245 6.42172 34936 ft 462 kts 53°
2026-05-06 11:29 53.29207 6.46504 35125 ft 469 kts 53°
2026-05-06 11:30 53.31183 6.50874 35465 ft 472 kts 53°
2026-05-06 11:30 53.33163 6.55257 35880 ft 473 kts 52°
2026-05-06 11:30 53.35234 6.59473 36227 ft 475 kts 47°
2026-05-06 11:30 53.37583 6.63398 36530 ft 478 kts 42°
2026-05-06 11:31 53.40067 6.67149 36813 ft 482 kts 41°
2026-05-06 11:31 53.42585 6.70894 37088 ft 485 kts 41°
2026-05-06 11:31 53.45108 6.74686 37366 ft 488 kts 41°
2026-05-06 11:31 53.47631 6.78543 37652 ft 491 kts 42°
2026-05-06 11:32 53.50154 6.82436 37871 ft 494 kts 42°
2026-05-06 11:32 53.52681 6.86361 38130 ft 496 kts 42°
2026-05-06 11:32 53.55220 6.90313 38359 ft 498 kts 42°
2026-05-06 11:32 53.57723 6.94248 38550 ft 500 kts 43°
2026-05-06 11:33 53.60254 6.98406 38720 ft 503 kts 44°
2026-05-06 11:33 53.65183 7.06771 38854 ft 509 kts 45°
2026-05-06 11:34 53.70179 7.15302 38897 ft 510 kts 45°
2026-05-06 11:34 53.75142 7.23739 38898 ft 504 kts 44°
2026-05-06 11:35 53.80083 7.32130 38904 ft 503 kts 44°
2026-05-06 11:35 53.85019 7.40538 38907 ft 502 kts 45°
2026-05-06 11:36 53.89919 7.48917 38913 ft 503 kts 45°
2026-05-06 11:36 53.94845 7.57374 38910 ft 504 kts 45°
2026-05-06 11:37 53.99776 7.65871 38915 ft 505 kts 45°
2026-05-06 11:37 54.04720 7.74421 38916 ft 506 kts 45°
2026-05-06 11:38 54.09625 7.82933 38917 ft 507 kts 45°
2026-05-06 11:38 54.14580 7.91563 38913 ft 508 kts 45°
2026-05-06 11:39 54.19526 8.00209 38911 ft 509 kts 45°
2026-05-06 11:39 54.24466 8.08877 38913 ft 509 kts 45°
2026-05-06 11:40 54.29379 8.17529 38908 ft 509 kts 45°
2026-05-06 11:40 54.34309 8.26241 38912 ft 509 kts 45°
2026-05-06 11:41 54.39237 8.34984 38915 ft 508 kts 45°
2026-05-06 11:41 54.44123 8.43682 38908 ft 508 kts 45°
2026-05-06 11:42 54.49029 8.52450 38911 ft 508 kts 45°
2026-05-06 11:42 54.53932 8.61244 38909 ft 508 kts 45°
2026-05-06 11:43 54.58824 8.70050 38912 ft 509 kts 46°
2026-05-06 11:43 54.63684 8.78832 38907 ft 509 kts 46°
2026-05-06 11:44 54.71014 8.92139 38908 ft 509 kts 46°
2026-05-06 11:44 54.75893 9.01039 38907 ft 510 kts 46°
2026-05-06 11:45 54.80742 9.09917 38265 ft 502 kts 46°
2026-05-06 11:45 54.83100 9.14244 37662 ft 498 kts 46°
2026-05-06 11:45 54.85466 9.18593 37117 ft 493 kts 46°
2026-05-06 11:46 54.87781 9.22947 36644 ft 487 kts 48°
2026-05-06 11:46 54.90018 9.27332 36172 ft 482 kts 49°
2026-05-06 11:46 54.92207 9.31701 35714 ft 477 kts 49°
2026-05-06 11:46 54.94373 9.36038 35246 ft 473 kts 49°
2026-05-06 11:47 54.96523 9.40333 34789 ft 469 kts 49°
2026-05-06 11:47 54.98662 9.44591 34343 ft 465 kts 49°
2026-05-06 11:47 55.00785 9.48810 33902 ft 461 kts 49°
2026-05-06 11:47 55.02892 9.53000 33386 ft 457 kts 49°
2026-05-06 11:48 55.04956 9.57109 32864 ft 453 kts 49°
2026-05-06 11:48 55.07025 9.61237 32371 ft 449 kts 49°
2026-05-06 11:48 55.08975 9.65469 31865 ft 445 kts 57°
2026-05-06 11:48 55.10573 9.70074 31369 ft 440 kts 64°
2026-05-06 11:49 55.11864 9.74889 30900 ft 435 kts 71°
2026-05-06 11:49 55.12827 9.79874 30423 ft 430 kts 75°
2026-05-06 11:49 55.13702 9.84848 29943 ft 427 kts 76°
2026-05-06 11:49 55.14557 9.89814 29386 ft 424 kts 76°
2026-05-06 11:50 55.15397 9.94685 28846 ft 421 kts 75°
2026-05-06 11:50 55.16248 9.99579 28334 ft 419 kts 75°
2026-05-06 11:50 55.17099 10.04440 27829 ft 416 kts 75°
2026-05-06 11:50 55.17947 10.09262 27359 ft 414 kts 75°
2026-05-06 11:51 55.18793 10.14067 26905 ft 412 kts 75°
2026-05-06 11:51 55.19633 10.18840 26470 ft 409 kts 75°
2026-05-06 11:51 55.20467 10.23594 26048 ft 407 kts 75°
2026-05-06 11:51 55.21293 10.28313 25638 ft 405 kts 75°
2026-05-06 11:52 55.22110 10.32994 25222 ft 395 kts 75°
2026-05-06 11:52 55.22901 10.37539 24369 ft 386 kts 74°
2026-05-06 11:52 55.23669 10.41968 23369 ft 384 kts 74°
2026-05-06 11:52 55.24442 10.46437 22216 ft 381 kts 74°
2026-05-06 11:53 55.25205 10.50854 21196 ft 376 kts 74°
2026-05-06 11:53 55.25954 10.55200 20259 ft 369 kts 73°
2026-05-06 11:53 55.26690 10.59479 19349 ft 362 kts 73°
2026-05-06 11:53 55.27408 10.63669 18476 ft 356 kts 73°
2026-05-06 11:54 55.28114 10.67792 17516 ft 350 kts 73°
2026-05-06 11:54 55.28810 10.71849 16552 ft 345 kts 73°
2026-05-06 11:54 55.29495 10.75849 15632 ft 340 kts 73°
2026-05-06 11:54 55.30167 10.79787 14725 ft 335 kts 73°
2026-05-06 11:55 55.30823 10.83633 13864 ft 330 kts 73°
2026-05-06 11:55 55.31479 10.87480 12917 ft 326 kts 73°
2026-05-06 11:55 55.32117 10.91244 12293 ft 313 kts 73°
2026-05-06 11:55 55.32726 10.94845 12108 ft 307 kts 73°
2026-05-06 11:56 55.33331 10.98429 11864 ft 302 kts 73°
2026-05-06 11:56 55.33913 11.01921 11371 ft 293 kts 73°
2026-05-06 11:56 55.34483 11.05350 10658 ft 291 kts 73°
2026-05-06 11:56 55.35039 11.08703 10396 ft 296 kts 73°
2026-05-06 11:57 55.35631 11.12264 10249 ft 304 kts 73°
2026-05-06 11:57 55.36216 11.15804 10076 ft 300 kts 74°
2026-05-06 11:57 55.36790 11.19290 10012 ft 295 kts 74°
2026-05-06 11:57 55.37362 11.22765 10016 ft 299 kts 73°
2026-05-06 11:58 55.37945 11.26302 10015 ft 302 kts 74°
2026-05-06 11:58 55.38532 11.29869 10012 ft 304 kts 73°
2026-05-06 11:58 55.39118 11.33450 10011 ft 305 kts 74°
2026-05-06 11:58 55.39703 11.37036 10004 ft 304 kts 74°
2026-05-06 11:59 55.40285 11.40604 9997 ft 302 kts 73°
2026-05-06 11:59 55.40868 11.44166 10002 ft 303 kts 73°
2026-05-06 11:59 55.41447 11.47734 10009 ft 303 kts 73°
2026-05-06 11:59 55.42018 11.51269 10009 ft 304 kts 74°
2026-05-06 12:00 55.42599 11.54859 9998 ft 305 kts 74°
2026-05-06 12:00 55.43178 11.58441 10010 ft 304 kts 74°
2026-05-06 12:00 55.43760 11.62025 10006 ft 303 kts 72°
2026-05-06 12:00 55.44634 11.65345 10012 ft 299 kts 56°
2026-05-06 12:01 55.45844 11.68356 10008 ft 300 kts 53°
2026-05-06 12:01 55.47058 11.71347 9906 ft 299 kts 54°
2026-05-06 12:01 55.47930 11.74614 9585 ft 294 kts 78°
2026-05-06 12:01 55.48089 11.78201 9213 ft 292 kts 90°
2026-05-06 12:02 55.48031 11.81776 8835 ft 291 kts 92°
2026-05-06 12:02 55.47944 11.85343 8449 ft 290 kts 92°
2026-05-06 12:02 55.47856 11.88881 8109 ft 288 kts 92°
2026-05-06 12:02 55.47772 11.92382 7803 ft 285 kts 92°
2026-05-06 12:03 55.47692 11.95845 7495 ft 281 kts 91°
2026-05-06 12:03 55.47618 11.99233 7191 ft 278 kts 91°
2026-05-06 12:03 55.47546 12.02624 6871 ft 276 kts 91°
2026-05-06 12:03 55.47474 12.06000 6480 ft 271 kts 91°
2026-05-06 12:04 55.47405 12.09236 6008 ft 257 kts 91°
2026-05-06 12:04 55.47339 12.12291 5625 ft 242 kts 91°
2026-05-06 12:04 55.47278 12.15173 5294 ft 228 kts 91°
2026-05-06 12:04 55.47220 12.17874 5017 ft 214 kts 91°
2026-05-06 12:05 55.47165 12.20470 4531 ft 210 kts 91°
2026-05-06 12:05 55.47110 12.23037 4006 ft 209 kts 90°
2026-05-06 12:05 55.47055 12.25590 3477 ft 207 kts 91°
2026-05-06 12:05 55.47001 12.28079 3017 ft 203 kts 91°
2026-05-06 12:06 55.46946 12.30547 2610 ft 198 kts 91°
2026-05-06 12:06 55.46891 12.32938 2494 ft 195 kts 91°
2026-05-06 12:06 55.46836 12.35397 2500 ft 205 kts 91°
2026-05-06 12:06 55.46778 12.37916 2479 ft 203 kts 92°
2026-05-06 12:07 55.46912 12.40248 2488 ft 182 kts 66°
2026-05-06 12:07 55.47637 12.41888 2502 ft 161 kts 49°
2026-05-06 12:07 55.48361 12.43306 2485 ft 149 kts 50°
2026-05-06 12:07 55.49042 12.44559 2480 ft 139 kts 47°
2026-05-06 12:08 55.49759 12.45745 2514 ft 144 kts 45°
2026-05-06 12:08 55.50521 12.46949 2356 ft 149 kts 44°
2026-05-06 12:08 55.51301 12.48157 2162 ft 148 kts 44°
2026-05-06 12:08 55.52066 12.49333 1955 ft 144 kts 44°
2026-05-06 12:09 55.52818 12.50492 1774 ft 144 kts 44°
2026-05-06 12:09 55.53577 12.51660 1551 ft 144 kts 44°
2026-05-06 12:09 55.54073 12.52425 1431 ft 141 kts 44°
2026-05-06 12:09 55.54782 12.53514 1256 ft 130 kts 45°
2026-05-06 12:10 55.55450 12.54545 1066 ft 125 kts 45°
2026-05-06 12:10 55.56110 12.55561 879 ft 128 kts 45°
2026-05-06 12:10 55.56787 12.56579 813 ft 128 kts 43°
2026-05-06 12:10 55.57471 12.57641 663 ft 128 kts 44°
2026-05-06 12:11 55.58123 12.58615 495 ft 118 kts 44°
2026-05-06 12:11 55.58710 12.59582 336 ft 113 kts 43°
2026-05-06 12:11 55.59288 12.60452 143 ft 107 kts 41°
2026-05-06 12:11 55.59828 12.61296 29 ft 98 kts 42°
2026-05-06 12:12 55.60267 12.61971 28 ft 66 kts 41°
2026-05-06 12:12 55.60535 12.62297 30 ft 42 kts 19°
2026-05-06 12:12 55.60790 12.62411 28 ft 17 kts 28°
2026-05-06 12:12 55.60791 12.62412 28 ft 16 kts 28°